METEOSAT 5 AKM, 21904

Orbit data source: Space-Track

METEOSAT 5 AKM, 21904 is space debris in GEO originally from a launch on Sat, 02 Mar 1991 UTC launched from the French Guiana (FRGUI). Debris objects in space refer to the collection of defunct objects orbiting the Earth. Examples of debris include non-operational satellites, rocket bodies, and fragments generated from explosions, collisions, or faulty payload assembly.

Loading next visibility...
Identifier
21904, 1991-015E
Orbit
GEO
Country
Flag of ESAESA
Related business
Manufacturer
SEP
Mission
Spacecraft
Bus & Motor
MAGE, Unknown motor
Mass
358 kg wet, 70 kg dry
Launch date (UTC)
1991-03-02 (35 years ago)
Launch vehicle
Unknown
Launch site
French Guiana (FRGUI)
Object type
Payload
Rocket body
Debris
Shape & HBR
Cyl + Cone, 0.6 m
Radar Cross Section
0.910 m², Medium (>0.1 m² and < 1m²)

Expand to show TLE details & history
Last TLE update: 3 days ago

TLE from 3 days ago
0 METEOSAT 5 AKM
1 21904U 91015E   26170.47509649 -.00000192  00000-0  00000-0 0  9995
2 21904  12.2584 338.3560 0156030 236.5375 121.9574  1.00117004116397
Epoch: 2026-06-19T11:24Z
TLE epoch observation values (Epoch: 2026-06-19T11:24:08.336Z)
Latitude
-0.00001°
Longitude
-100.37982°
Altitude
36,182.637 km
Speed
3.048 km/s
True Right ascension
22h 33m 26s
True Declination
0° 00' 00"
Sunlit
Object was in daylight at epoch
Visualization orbit readout
Latitude
Unknown
Longitude
Unknown
Altitude
Unknown
Speed
Unknown
Apparent Right ascension
Unknown
Apparent Declination
Unknown
Sunlit
N/A
Visualization observer readout
Local Sidereal Time
00:50:35
Azimuth
Unknown
Elevation
Unknown
Doppler factor
Unknown
Orbital elements
Apogee altitude
36,489.631 km
Perigee altitude
35,172.451 km
Semi-major axis
42,209.178 km
Eccentricity
0.0156
Inclination
12.2584°
RAAN
338.356°
Arg. of periapsis
236.5375°
True anomaly
123.45871°
Mean anomaly
121.9574°
Eccentric anomaly
122.70962°
Mean motion
0.25028 °/min
Orbital period
1,438.37 mins
BSTAR
0
Loading maneuver chart data...
Computing Atmospheric mass density...

Documentation

Showing up to 5 results
|